This is the latest recevied weather packets stored in our database for station/object VA6GSB-13. If no packets are shown the sender has not sent any weather packets the latest 10 day(s).
| Time | Temp. | Humidity | Pressure | Rain* | Wind** | Luminosity | Snow |
|---|---|---|---|---|---|---|---|
| 1787631040 | 16.11° C | 68% | 1021 hPa | 0 mm | - | 0 W/m² | - |
| 1787630739 | 16.11° C | 69% | 1021 hPa | 0 mm | - | 0 W/m² | - |
| 1787630664 | 16.11° C | 68% | 1021 hPa | 0 mm | - | 0 W/m² | - |
| 1787630363 | 16.67° C | 68% | 1020.9 hPa | 0 mm | - | 0 W/m² | - |
| 1787630140 | 17.22° C | 65% | 1021 hPa | 0 mm | - | 0 W/m² | - |
| 1787629840 | 17.22° C | 62% | 1021 hPa | 0 mm | - | 0 W/m² | - |
| 1787629764 | 17.22° C | 61% | 1020.8 hPa | 0 mm | - | 0 W/m² | - |
| 1787629463 | 17.22° C | 62% | 1020.8 hPa | 0 mm | - | 0 W/m² | - |
| 1787629239 | 17.22° C | 62% | 1021 hPa | 0 mm | - | 0 W/m² | - |
| 1787628940 | 17.22° C | 63% | 1021 hPa | 0 mm | - | 0 W/m² | - |
| 1787628864 | 17.22° C | 63% | 1020.7 hPa | 0 mm | - | 0 W/m² | - |
| 1787628643 | 17.22° C | 64% | 1021 hPa | 0 mm | - | 0 W/m² | - |
| 1787628565 | 17.22° C | 64% | 1020.7 hPa | 0 mm | - | 0 W/m² | - |
| 1787628339 | 17.22° C | 65% | 1021 hPa | 0 mm | - | 0 W/m² | - |
| 1787628040 | 17.78° C | 63% | 1021 hPa | 0 mm | - | 0 W/m² | - |
| 1787627739 | 17.22° C | 64% | 1021 hPa | 0 mm | - | 0 W/m² | - |
| 1787627663 | 17.22° C | 64% | 1020.6 hPa | 0 mm | - | 0 W/m² | - |
| 1787627439 | 17.22° C | 66% | 1021 hPa | 0 mm | - | 0 W/m² | - |
| 1787627139 | 17.78° C | 66% | 1021 hPa | 0 mm | - | 0 W/m² | - |
| 1787626840 | 17.78° C | 65% | 1021 hPa | 0 mm | - | 1 W/m² | - |
| 1787626540 | 17.78° C | 65% | 1020 hPa | 0 mm | - | 1 W/m² | - |
| 1787626239 | 17.78° C | 63% | 1020 hPa | 0 mm | - | 1 W/m² | - |
| 1787626164 | 17.78° C | 63% | 1020.3 hPa | 0 mm | - | 1 W/m² | - |
| 1787625940 | 17.78° C | 67% | 1020 hPa | 0 mm | - | 3 W/m² | - |
| 1787625641 | 18.33° C | 66% | 1020 hPa | 0 mm | - | 5 W/m² | - |
* Rain latest hour (hover to see other rain measurements)
** Current wind speed in m/s (hover to see current wind gust speed)